Weather History for Goodland, KS

Change the Weather History Date:

Thursday, December 19, 2013

  Actual Average Record
Temperature  
Mean Temperature 30 °F 29 °F  
Max Temperature 45 °F 42 °F 66 °F (1917)
Min Temperature 15 °F 17 °F -14 °F (1924)
Degree Days  
Heating Degree Days 35 36  
Month to date heating degree days 702 660  
Since 1 July heating degree days 1975 1979  
Cooling Degree Days 0 0  
Month to date cooling degree days 0 0  
Year to date cooling degree days 1181 941  
Moisture  
Dew Point 20 °F    
Average Humidity 70    
Maximum Humidity 100    
Minimum Humidity 40    
Precipitation  
Precipitation T in 0.01 in 0.60 in (1911)
Month to date precipitation 0.05 0.29  
Year to date precipitation 16.74 19.49  
Snow  
Snow T in 0.20 in - ()
Month to date snowfall 2.5 3.3  
Since 1 July snowfall 6.8 10.5  
Snow Depth 0.00 in    
Sea Level Pressure  
Sea Level Pressure 29.76 in    
Wind  
Wind Speed 13 mph (NNE)    
Max Wind Speed 28 mph    
Max Gust Speed 34 mph    
Visibility 9 miles    
Events Snow    
T = Trace of Precipitation, MM = Missing Value Source: NWS Daily Summary

Daily Weather History Graph

Daily Weather History Graph

Search for Another Location

Airport:

Trip Planner

Search our weather history database for the weather conditions in past years. The results will help you decide how hot, cold, wet, or windy it might be!

Date:

Astronomy

Dec. 19, 2013 Rise Set
Actual Time 7:02 AM MST 4:25 PM MST
Civil Twilight 6:32 AM MST 4:56 PM MST
Nautical Twilight 5:58 AM MST 5:29 PM MST
Astronomical Twilight 5:25 AM MST 6:02 PM MST
Moon 6:52 PM MST (12/19) 8:22 AM MST (12/19)
Length of Visible Light 10h 24m
Length of Day
9h 23m
Waning Gibbous, 95% of the Moon is Illuminated
Dec 19
Waning Gibbous
Dec 25
Last Quarter
Jan 1
New
Jan 7
First Quarter
Jan 15
Full

Hourly Weather History & Observations

Time (MST) Temp. Windchill Dew Point Humidity Pressure Visibility Wind Dir Wind Speed Gust Speed Precip Events Conditions
12:53 AM 37.0 °F 34.5 °F 15.1 °F 41% 29.64 in 10.0 mi North 3.5 mph - N/A   Clear
1:53 AM 36.0 °F 31.1 °F 17.1 °F 46% 29.63 in 10.0 mi NE 5.8 mph - N/A   Clear
2:53 AM 34.0 °F 28.8 °F 18.0 °F 52% 29.64 in 10.0 mi NE 5.8 mph - N/A   Clear
3:53 AM 27.0 °F 18.0 °F 17.1 °F 66% 29.70 in 10.0 mi North 9.2 mph - N/A   Clear
4:53 AM 26.1 °F 19.4 °F 18.0 °F 71% 29.73 in 10.0 mi NNW 5.8 mph - N/A   Clear
5:53 AM 23.0 °F 13.9 °F 17.1 °F 78% 29.74 in 10.0 mi North 8.1 mph - N/A   Clear
6:53 AM 26.1 °F 16.8 °F 19.0 °F 75% 29.74 in 10.0 mi ENE 9.2 mph - N/A   Clear
7:53 AM 30.0 °F 24.1 °F 21.9 °F 72% 29.75 in 10.0 mi NNE 5.8 mph - N/A   Clear
8:53 AM 35.1 °F 26.4 °F 24.1 °F 64% 29.73 in 10.0 mi East 12.7 mph - N/A   Clear
9:53 AM 37.0 °F 28.5 °F 25.0 °F 62% 29.71 in 10.0 mi East 13.8 mph - N/A   Clear
10:53 AM 39.9 °F 32.9 °F 25.0 °F 55% 29.69 in 10.0 mi East 11.5 mph - N/A   Clear
11:53 AM 42.1 °F 36.1 °F 26.1 °F 53% 29.65 in 10.0 mi East 10.4 mph - N/A   Clear
12:53 PM 44.1 °F 39.0 °F 26.1 °F 49% 29.61 in 10.0 mi East 9.2 mph - N/A   Clear
1:53 PM 44.1 °F 38.1 °F 26.1 °F 49% 29.59 in 10.0 mi East 11.5 mph - N/A   Clear
2:53 PM 43.0 °F 36.4 °F 26.1 °F 51% 29.62 in 10.0 mi ENE 12.7 mph - N/A   Clear
3:53 PM 39.0 °F 31.4 °F 26.1 °F 60% 29.68 in 10.0 mi ENE 12.7 mph - N/A   Clear
4:53 PM 34.0 °F 24.2 °F 25.0 °F 70% 29.73 in 10.0 mi NE 15.0 mph - N/A   Clear
5:53 PM 30.0 °F 19.1 °F 23.0 °F 75% 29.81 in 10.0 mi NNE 15.0 mph - N/A   Partly Cloudy
6:11 PM 27.0 °F 11.9 °F 21.9 °F 81% 29.76 in 10.0 mi NNE 25.3 mph 32.2 mph N/A   Mostly Cloudy
6:26 PM 26.1 °F 11.0 °F 21.9 °F 84% 29.77 in 9.0 mi NNE 24.2 mph 32.2 mph N/A   Overcast
6:33 PM 25.0 °F 9.9 °F 21.9 °F 88% 29.77 in 8.0 mi NNE 23.0 mph 34.5 mph N/A   Overcast
6:53 PM 23.0 °F 6.6 °F 21.0 °F 92% 29.89 in 5.0 mi NNE 25.3 mph 33.4 mph N/A   Overcast
7:02 PM 21.9 °F 5.1 °F 21.0 °F 96% 29.80 in 3.0 mi NNE 25.3 mph 31.1 mph N/A   Overcast
7:12 PM 21.0 °F 4.6 °F 19.9 °F 96% 29.81 in 2.5 mi NNE 23.0 mph 34.5 mph N/A   Overcast
7:20 PM 21.0 °F 4.6 °F 19.9 °F 96% 29.81 in 4.0 mi NNE 23.0 mph 29.9 mph N/A   Overcast
7:53 PM 19.9 °F 4.8 °F 19.0 °F 96% 29.93 in 6.0 mi North 18.4 mph - N/A   Overcast
8:25 PM 19.9 °F 4.3 °F 18.0 °F 92% 29.84 in 9.0 mi North 19.6 mph - N/A   Overcast
8:53 PM 19.9 °F 3.2 °F 17.1 °F 89% 29.94 in 9.0 mi North 23.0 mph 29.9 mph N/A   Overcast
9:53 PM 18.0 °F 0.6 °F 15.1 °F 88% 29.91 in 10.0 mi North 23.0 mph 29.9 mph N/A   Overcast
10:23 PM 17.1 °F 0.6 °F 12.9 °F 84% 29.87 in 10.0 mi North 19.6 mph 29.9 mph N/A   Overcast
10:53 PM 17.1 °F -0.6 °F 12.0 °F 81% 29.94 in 9.0 mi North 23.0 mph 31.1 mph 0.00 in Snow Light Snow
11:53 PM 15.1 °F -2.0 °F 10.0 °F 80% 29.95 in 9.0 mi North 19.6 mph 32.2 mph 0.00 in   Overcast